Regional Weather Roundup
Issued by NWS Upton, NY

Current Version | Previous Version | Text Only | Print | Product List | Glossary On
Versions: 1 2 3 4 5 6 7 8 9 10 11 12 13 14 15 16 17 18 19 20 21 22 23 24 25 26 27
000
ASUS41 KOKX 190305
RWROKX

REGIONAL WEATHER ROUNDUP
NATIONAL WEATHER SERVICE NEW YORK NY
1100 PM EDT FRI APR 18 2014

NOTE: "FAIR" INDICATES FEW OR NO CLOUDS BELOW 12,000 FEET WITH NO
SIGNIFICANT WEATHER AND/OR OBSTRUCTIONS TO VISIBILITY.

NYZ071-072-176-178-NJZ106-104-190400-
NEW YORK CITY METRO AREA


CITY           SKY/WX    TMP DP  RH WIND       PRES   REMARKS
CENTRAL PARK   CLOUDY    43  33  68 CALM      30.30F
LAGUARDIA APRT CLOUDY    42  32  67 S8        30.28F
KENNEDY INTL   CLOUDY    41  34  76 S5        30.29F
NEWARK/LIBERTY CLOUDY    42  33  70 S5        30.29F
TETERBORO      CLOUDY    44  34  67 SW6       30.28F
$$

NYZ177-179-078>081-190400-
LONG ISLAND NEW YORK

CITY           SKY/WX    TMP DP  RH WIND       PRES   REMARKS
FARMINGDALE    CLOUDY    40  34  79 S6        30.29F
ISLIP          CLOUDY    41  34  76 CALM      30.26F
SHIRLEY        CLOUDY    39  35  86 S5        30.29F
WESTHAMPTON    CLOUDY    38  32  79 CALM      30.30F
MONTAUK POINT    N/A     41  35  79 SW3       30.31F
$$

NYZ052-065-067-190400-
HUDSON VALLEY

CITY           SKY/WX    TMP DP  RH WIND       PRES   REMARKS
WHITE PLAINS   CLOUDY    39  31  72 S3        30.26F
NEWBURGH       PTCLDY    45  30  57 CALM      30.26F
MONTGOMERY     CLOUDY    43  30  60 CALM      30.24F
POUGHKEEPSIE   CLOUDY    45  29  53 S3        30.24F
ALBANY         PTCLDY    44  26  49 S7        30.23F
$$

NJZ001-105-106-008-010-013-015-019>022-104-190400-
NEW JERSEY

CITY           SKY/WX    TMP DP  RH WIND       PRES   REMARKS
NEWARK/LIBERTY CLOUDY    42  33  70 S5        30.29F
TETERBORO      CLOUDY    44  34  67 SW6       30.28F
CALDWELL       CLOUDY    42  31  64 CALM      30.29F
MORRISTOWN     CLOUDY    43  36  75 CALM      30.28S
SOMERVILLE     CLOUDY    42  32  67 CALM      30.28R
LINDEN         FAIR      44  33  66 CALM      30.31S
SUSSEX         CLOUDY    44  31  60 W3        30.24F
ANDOVER          N/A     43  33  68 CALM      30.25F
TRENTON        CLOUDY    42  34  73 S8        30.29S
MILLVILLE      CLOUDY    41  36  82 CALM      30.32R
ATLANTIC CITY  CLOUDY    41  36  82 S3        30.31S
WRIGHTSTOWN    CLOUDY    39  34  82 E1        30.28F
TOMS RIVER     CLOUDY    37  34  87 CALM      30.31F
BELMAR         CLOUDY    39  30  70 S6        30.31R WCI  35
$$

PAZ047>061-062-071-190400-
EASTERN PENNSYLVANIA

CITY           SKY/WX    TMP DP  RH WIND       PRES   REMARKS
PHILADELPHIA   CLOUDY    46  37  71 SW8       30.31F
ALLENTOWN      CLOUDY    46  31  55 SW3       30.26F
SCRANTON       MOCLDY    45  30  55 W10       30.24R
$$

CTZ002-004>006-009-010-012-RIZ004-006-007-MAZ004-011-015-190400-
SOUTHERN NEW ENGLAND
 IN CT

CITY           SKY/WX    TMP DP  RH WIND       PRES   REMARKS
BRADLEY INTL   CLOUDY    43  30  60 S7        30.25F
HARTFORD       CLOUDY    42  31  64 S6        30.27F
DANBURY        CLOUDY    40  30  67 CALM      30.27F
WTRBRY/OXFORD  CLOUDY    39  27  60 SW3       30.28F
BRIDGEPORT     CLOUDY    42  35  76 S7        30.27F
MERIDEN        CLOUDY    41  32  70 SE3       30.27F
NEW HAVEN      CLOUDY    42  35  76 SW5       30.28F
CHESTER        FAIR      39  34  81 SW3       30.27F
GROTON         CLOUDY    41  36  82 SW9       30.28F
WILLIMANTIC    CLOUDY    42  31  64 S3        30.27F

 IN RI

CITY           SKY/WX    TMP DP  RH WIND       PRES   REMARKS
PROVIDENCE     CLOUDY    40  33  76 S8        30.30S WCI  34
BLOCK ISLAND   CLOUDY    39  34  81 W5        30.30S
WESTERLY       CLOUDY    41  36  82 SW6       30.30F

 IN MA

CITY           SKY/WX    TMP DP  RH WIND       PRES   REMARKS
BOSTON         CLOUDY    38  33  82 S7        30.29F WCI  33
WORCESTER      CLOUDY    38  31  76 SE5       30.24F WCI  34
WESTFIELD      CLOUDY    43  32  65 S6        30.25F
PROVINCETOWN   CLOUDY    36  34  93 MISG      30.30R
NANTUCKET      CLOUDY    38  34  85 CALM      30.28F
$$

ANZ330-335-338-340-345-350-353-355-190400-
COASTAL MARINE OBSERVATIONS


STATION/POSITION TIME  SKY/WX   TEMP    WIND        PRES    VSBY  WAVE
                                AIR SEA DIR/SP/G                  HT/PER
                 (UTC)          (F)     (DEG/KT/KT) (MB)    (MI)  (FT/S)
NY HARB ENTRANCE 0300            41 43   60/  4/  6 1025.7
4S FIRE IS       0200               44                N/A           5/11
23SW MTP         0300            40 42  300/  4/  6 1025.3          5/11
HUDSON CANYON    0200            41 44   50/  6/  8 1025.8          7/11
EXECUTION ROCKS  0300            42 42  190/  6/  8   N/A
WESTERN LI SOUND 0300            41     190/  6/  6   N/A           0
CENTRAL LI SOUND 0200            41 42  230/  8/ 10   N/A           1
EASTERN LI SOUND NOT AVBL
ROBBINS REEF     0300            42     160/  8/ 10   N/A
$$


>>>>>>>>>>>>>>>>>>>>>>>>>>>> KEY <<<<<<<<<<<<<<<<<<<<<<<<<<<
>                                                          <
>     SKY/WX - SKY CONDITION/PRESENT WEATHER               <
>     TMP    - TEMPERATURE IN FAHRENHEIT                   <
>     DP     - DEWPOINT IN FAHRENHEIT                      <
>     RH     - RELATIVE HUMIDITY IN PERCENT                <
>     WIND   - DIRECTION AND SPEED IN MPH                  <
>     PRES   - MEAN SEA LEVEL PRESSURE IN INCHES OF HG     <
>     WCI    - WIND CHILL INDEX                            <
>     VSB    - VISIBILITY IN MILES                         <
>     HX     - HEAT INDEX                                  <
>     TC     - TEMPERATURE IN CELSIUS                      <
>     VRB    - VARIABLE WIND DIRECTION                     <
>                                                          <
>>>>>>>>>>>>>>>>>>>>>>>>>>>> KEY <<<<<<<<<<<<<<<<<<<<<<<<<<<





USA.gov is the U.S. government's official web portal to all federal, state and local government web resources and services.